sat.trackr.live / text

‹ back to catalog

O3B FM4

NORAD 39189 · 2013-031B

PAYLOAD ACTIVE UNKNOWN

§ Identity

Operator
Country
O3B
Launch date
2013-06-25
Launch site
FRGUI
Launch vehicle
Mass (kg)
RCS (m²)
80.08

Purposes: comms

External: N2YO · Heavens-Above · Gunter

§ Orbital elements

Epoch: 2026-09-19T16:58:58.432800Z

Period
287.93 min
Inclination
0.0404°
Eccentricity
0.0004384
Mean motion
5.00115789 rev/d
Perigee alt
8,059.6 km
Apogee alt
8,072.2 km
Semi-major
14,444.0 km
B*
0.0000e+0
RAAN
355.9937°
Arg perigee
153.5361°
Mean anomaly
210.4979°
Rev number
24,176

§ Raw data

O3B FM41 39189U 13031B   26262.70762075 -.00000027  00000+0  00000+0 0  99982 39189   0.0404 355.9937 0004384 153.5361 210.4979  5.00115789241762

JSON: /api/v1/satellites/39189 · /tle

For live sub-satellite position, see the globe view (requires WebGL).

§ Visibility from observer

Set your observer location to see the next 7 days of passes ≥ 10°. The values pass through the URL so the page stays shareable.

No JS? Fill the form by hand. The geolocation button needs JavaScript.